Location: Krakow
(50.0830°N, 19.9170°E)
Time: 14:56:59
(UTC+01:00)

Transit 4A - All Passes

Search period start: 04 December 2023 00:00
Search period end: 14 December 2023 00:00
Orbit: 864 x 979 km, 66.8° (Epoch: 04 December)

Date Brightness Start Highest point End Pass type
(mag) Time Alt. Az. Time Alt. Az. Time Alt. Az.
04 Dec - 00:10:48 10° NW 00:14:51 17° N 00:18:50 10° NE night (unlit)
04 Dec - 01:58:54 10° NNW 02:03:37 22° NNE 02:08:14 10° ENE visible
04 Dec - 03:45:17 10° NNW 03:51:23 55° NE 03:57:14 10° SE visible
04 Dec - 05:32:02 10° NW 05:37:31 36° WSW 05:42:50 10° S visible
04 Dec - 18:57:11 10° SSE 19:02:29 28° ESE 19:07:45 10° NE visible
04 Dec - 20:42:00 10° SW 20:48:24 71° NW 20:54:43 10° NE night (unlit)
04 Dec - 22:30:41 10° W 22:35:51 25° NNW 22:40:58 10° NNE night (unlit)
05 Dec - 00:20:34 10° NW 00:24:31 17° N 00:28:24 10° NE night (unlit)
05 Dec - 02:08:06 10° NNW 02:13:10 25° NNE 02:18:06 10° E visible
05 Dec - 03:54:24 10° NW 04:00:36 73° NE 04:06:34 10° SE visible
05 Dec - 05:41:31 10° NW 05:46:22 25° WSW 05:51:07 10° SSW visible
05 Dec - 19:05:32 10° S 19:11:23 39° ESE 19:17:11 10° NE visible
05 Dec - 20:51:22 10° WSW 20:57:38 55° NW 21:03:49 10° NNE visible
05 Dec - 22:40:36 10° WNW 22:45:24 22° NNW 22:50:09 10° NNE night (unlit)
06 Dec - 00:30:10 10° NW 00:34:10 17° N 00:38:07 10° NE night (unlit)
06 Dec - 02:17:15 10° NNW 02:22:39 30° NNE 02:27:53 10° E visible
06 Dec - 04:03:33 10° NW 04:09:44 85° SW 04:15:42 10° SSE visible
06 Dec - 05:51:19 10° WNW 05:55:10 18° WSW 05:58:57 10° SW visible
06 Dec - 17:34:43 10° ESE 17:35:20 10° E 17:35:57 10° E visible
06 Dec - 19:14:11 10° SSW 19:20:21 54° ESE 19:26:29 10° NE visible
06 Dec - 21:00:53 10° WSW 21:06:56 43° NW 21:12:55 10° NNE visible
06 Dec - 22:50:32 10° WNW 22:55:00 19° NNW 22:59:23 10° NNE night (unlit)
07 Dec - 00:39:38 10° NNW 00:43:49 18° NNE 00:47:56 10° NE night (unlit)
07 Dec - 02:26:21 10° NNW 02:32:03 37° NE 02:37:35 10° ESE visible
07 Dec - 04:12:44 10° NW 04:18:48 62° WSW 04:24:38 10° SSE visible
07 Dec - 06:01:54 10° W 06:03:52 12° W 06:05:50 10° WSW visible
07 Dec - 17:40:29 10° SE 17:44:02 16° ESE 17:47:36 10° ENE visible
07 Dec - 19:23:02 10° SSW 19:29:24 73° ESE 19:35:42 10° NE visible
07 Dec - 21:10:32 10° W 21:16:18 34° NW 21:21:59 10° NNE visible
07 Dec - 23:00:28 10° NW 23:04:37 18° N 23:08:43 10° NNE night (unlit)
08 Dec - 00:48:58 10° NNW 00:53:26 20° NNE 00:57:48 10° ENE night (unlit)
08 Dec - 02:35:27 10° NNW 02:41:24 46° NE 02:47:08 10° ESE visible
08 Dec - 04:22:01 10° NW 04:27:47 45° WSW 04:33:22 10° S visible
08 Dec - 17:48:04 10° SSE 17:52:49 22° ESE 17:57:33 10° ENE visible
08 Dec - 19:32:06 10° SW 19:38:30 85° NW 19:44:51 10° NE visible
08 Dec - 21:20:20 10° W 21:25:45 28° NNW 21:31:05 10° NNE visible
08 Dec - 23:10:18 10° NW 23:14:17 17° N 23:18:12 10° NE night (unlit)
09 Dec - 00:58:13 10° NNW 01:03:00 23° NNE 01:07:42 10° ENE night (unlit)
09 Dec - 02:44:33 10° NNW 02:50:40 60° NE 02:56:34 10° SE visible
09 Dec - 04:31:24 10° NW 04:36:42 32° WSW 04:41:51 10° S visible
09 Dec - 17:56:11 10° S 18:01:40 31° ESE 18:07:07 10° NE visible
09 Dec - 19:41:20 10° SW 19:47:41 65° NW 19:53:58 10° NNE visible
09 Dec - 21:30:12 10° WNW 21:35:15 24° NNW 21:40:14 10° NNE visible
09 Dec - 23:20:01 10° NW 23:23:56 17° N 23:27:48 10° NE night (unlit)
10 Dec - 01:07:23 10° NNW 01:12:32 26° NNE 01:17:33 10° E night (unlit)
10 Dec - 02:53:40 10° NW 02:59:51 80° NE 03:05:49 10° SE visible
10 Dec - 04:40:58 10° WNW 04:45:32 23° WSW 04:49:59 10° SSW visible
10 Dec - 18:04:37 10° S 18:10:35 43° ESE 18:16:30 10° NE visible
10 Dec - 19:50:45 10° WSW 19:56:57 50° NW 20:03:04 10° NNE visible
10 Dec - 21:40:08 10° WNW 21:44:48 21° NNW 21:49:25 10° NNE visible
10 Dec - 23:29:35 10° NNW 23:33:36 17° N 23:37:33 10° NE night (unlit)
11 Dec - 01:16:31 10° NNW 01:21:59 32° NNE 01:27:19 10° E night (unlit)
11 Dec - 03:02:49 10° NW 03:08:58 77° WSW 03:14:54 10° SSE visible
11 Dec - 04:50:55 10° WNW 04:54:18 16° WSW 04:57:37 10° SW visible
11 Dec - 16:32:20 10° ESE 16:34:27 12° E 16:36:34 10° E visible
11 Dec - 18:13:20 10° SSW 18:19:35 59° ESE 18:25:47 10° NE visible
11 Dec - 20:00:19 10° WSW 20:06:16 40° NW 20:12:08 10° NNE visible
11 Dec - 21:50:04 10° WNW 21:54:24 19° NNW 21:58:40 10° NNE visible
11 Dec - 23:39:00 10° NNW 23:43:14 19° NNE 23:47:24 10° ENE night (unlit)
12 Dec - 01:25:37 10° NNW 01:31:23 39° NE 01:36:58 10° ESE night (unlit)
12 Dec - 03:12:03 10° NW 03:18:00 56° WSW 03:23:46 10° SSE visible
12 Dec - 16:39:10 10° SE 16:43:11 18° ESE 16:47:10 10° ENE visible
12 Dec - 18:22:15 10° SSW 18:28:39 80° ESE 18:34:58 10° NE visible
12 Dec - 20:10:01 10° W 20:15:40 32° NW 20:21:13 10° NNE visible
12 Dec - 21:59:58 10° NW 22:04:02 17° N 22:08:03 10° NNE visible
12 Dec - 23:48:17 10° NNW 23:52:50 21° NNE 23:57:17 10° ENE night (unlit)
13 Dec - 01:34:42 10° NNW 01:40:42 50° NE 01:46:29 10° ESE night (unlit)
13 Dec - 03:21:21 10° NW 03:26:58 40° WSW 03:32:25 10° S night (unlit)
13 Dec - 16:46:58 10° SSE 16:51:59 25° ESE 16:56:58 10° NE visible
13 Dec - 18:31:23 10° SW 18:37:47 78° NW 18:44:06 10° NE visible
13 Dec - 20:19:49 10° W 20:25:06 27° NNW 20:30:19 10° NNE visible
13 Dec - 22:09:47 10° NW 22:13:42 17° N 22:17:34 10° NE visible
